Simultaneous Nadir Overpasses (SNOs) Predictions

Prediction of SNOs between GOES-17 and TERRA Satellite Orbit:

Table of predicted SNOs for the next 14.0 days since TLE Epoch: 3/25/2023
Index Date Time (GOES-17) GOES-17 Lat,Lon TERRA Lat,Lon Distance(km) Time Diff (sec)
1 03/26/2023 05:02:40 0.02,-104.74 0.19,-103.80 106.50 80
2 03/26/2023 17:22:56 -0.02,-104.77 0.81,-108.73 449.51 80
3 03/28/2023 17:09:30 -0.02,-104.77 0.01,-104.83 7.90 80
4 03/30/2023 16:53:24 -0.03,-104.77 -0.83,-100.95 434.51 80
5 03/31/2023 05:13:47 0.02,-104.74 -0.22,-105.90 131.72 80
6 04/02/2023 04:55:00 0.03,-104.74 0.62,-102.01 311.09 80
7 04/02/2023 17:15:15 -0.03,-104.77 0.43,-106.93 244.80 80
8 04/04/2023 17:01:46 0.02,-104.78 -0.33,-103.02 199.71 80
9 04/05/2023 05:22:09 -0.02,-104.75 -0.69,-107.97 365.74 80
10 04/07/2023 05:03:20 -0.02,-104.76 0.11,-104.07 77.91 80
11 04/07/2023 17:23:34 0.02,-104.78 0.91,-108.99 478.19 80
